Погода в Кольчугине

Россия / Владимирская область     56°17′38″N   39°22′33″E
В апреле 2022 года жителям России запретили посещать сайт meteo.paraplan.net по решению Генеральной прокуратуры. Аудитория сайта уменьшилась в 10 раз. Владельцы сайта не видят смысла в поддержке погодного сервера в таких условиях. Сайт будет закрыт в октябре.
темп.,
°C
ветер,
м/с
пор.,
м/с
влажн.,
%
обл.,
%
осадки,
мм/ч
давл.,
гПа
погр.,
м
25 сентября, вс
вс2500:00+6ююв5794100 1.1 9991041
03:00+6юв4794100 2.7 9991037
06:00+6юв4795100 1.1 10001002
09:00+6юв4792100 1.3 1001959
12:00+7вюв4893100 0.6 1002676
15:00+7юв2692100 1.4 1003752
18:00+7в1496100 0.1 1004226
21:00+7всв1297100 0.2 100585
26 сентября, пн
пн2600:00+7с119699 0.1 100517
03:00+6сз1296100 0.1 100558
06:00+6з2396100 0.0 100685
09:00+8зсз2490100 0.1 1007195
12:00+10зюз2376100 0.6 1007457
15:00+10з247996 1.1 1008475
18:00+8з239198 0.3 101073
21:00+6з129494 0.3 101115
27 сентября, вт
вт2700:00+5юз229543 0.0 101220
03:00+4юз11965 0.0 101312
06:00+3ююз119646 0.0 101310
09:00+7ююв128629 0.0 1014233
12:00+11ююв236948 0.1 10141003
15:00+12ююв126073 0.3 10141215
18:00+9юв117585 0.2 101513
21:00+7вюв128491 0.2 101611
28 сентября, ср
ср2800:00+7вюв248888 0.0 1015102
03:00+5в2695100 0.0 1016129
06:00+7в31085100 0.0 1015358
09:00+8в51285100 0.0 1015631
12:00+9в61179100 0.0 1014750
15:00+8в71277100 0.0 1013837
18:00+6в71389100 1.6 1013863
21:00+6в71493100 4.0 1012837
29 сентября, чт
чт2900:00+5в61495100 2.2 1011805
03:00+5в71495100 3.8 1011711
06:00+5в61395100 1.6 1011707
09:00+4в61394100 3.4 1012718
12:00+3всв61394100 1.3 1014634
15:00+3в51294100 3.0 1016570
18:00+3в51294100 0.3 1019668
21:00+3в51292100 0.3 1020668